Hourly Data Report for October 12, 2016

All times are specified in Local Standard Time (LST). Add 1 hour to adjust for Daylight Saving Time where and when it is observed.

WINNIPEG A CS
MANITOBA

49°55'00.000" N
97°14'58.000" W
238.70 m
502S001
71849
XWG

Download Data

Hourly Data (October 2016)
Hourly Data Report for October 12, 2016
Temp Definition
°C
Dew Point Temp Definition
°C
Rel Hum Definition
%
Wind Dir Definition
10's deg

Wind Spd Definition
km/h
Visibility Definition
km
Stn Press Definition
kPa
Hmdx Definition


Wind Chill Definition


Weather Definition


TIME
00:00 0.6 0.0 95 30 11   99.23     LegendNANA
01:00 0.8 0.1 95 28 13   99.25     LegendNANA
02:00 1.0 0.3 95 29 16   99.27     LegendNANA
03:00 1.1 0.2 94 29 15   99.27     LegendNANA
04:00 0.9 0.3 96 30 11   99.28     LegendNANA
05:00 0.8 0.2 96 27 10   99.30     LegendNANA
06:00 0.9 -0.3 92 28 15   99.33     LegendNANA
07:00 0.8 -1.4 85 28 10   99.34     LegendNANA
08:00 1.1 -2.1 79 27 16   99.34     LegendNANA
09:00 2.1 -2.8 70 28 18   99.35     LegendNANA
10:00 3.0 -2.2 69 26 24   99.33     LegendNANA
11:00 2.5 -2.3 70 29 27   99.30     LegendNANA
12:00 3.4 -3.1 62 27 26   99.28     LegendNANA
13:00 2.9 -3.1 65 28 24   99.26     LegendNANA
14:00 2.9 -3.8 61 28 24   99.25     LegendNANA
15:00 2.8 -4.3 60 26 22   99.23     LegendNANA
16:00 2.7 -3.7 63 27 20   99.22     LegendNANA
17:00 2.6 -3.7 63 26 16   99.21     LegendNANA
18:00 2.5 -3.7 64 21 12   99.15     LegendNANA
19:00 1.7 -3.7 68 20 16   99.12     LegendNANA
20:00 0.7 -3.7 73 22 14   99.12     LegendNANA
21:00 -0.2 -3.8 77 20 14   99.09   -4 LegendNANA
22:00 -1.2 -3.8 82 19 13   99.09   -5 LegendNANA
23:00 -1.1 -3.8 82 19 16   99.06   -6 LegendNANA

Notes on Data Quality.

Legend

  • E = Estimated
  • M = Missing
  • NA = Not Available
  • ‡ = Partner data that is not subject to review by the National Climate Archives
Date modified: